Location: Cella
(44.7333°N, 10.5667°E)
Time: 15:07:12
(UTC+00:00)

Cosmos 2360 Rocket - Pass Details

Date: 03 March 2021
Orbit: 833 x 846 km, 71.0° (Epoch: 18 April)

Event Time Altitude Azimuth Distance (km) Brightness Sun altitude
Rises 18:36:30 0° 205° (SSW) 3,374 5.6 -16.4°
Reaches altitude 10° 18:38:55 10° 206° (SSW) 2,446 4.8 -16.9°
Maximum altitude 18:44:33 84° 295° (WNW) 851 2.2 -17.9°
Drops below altitude 10° 18:50:15 10° 25° (NNE) 2,471 4.5 -18.9°
Sets 18:52:42 0° 26° (NNE) 3,411 5.2 -19.3°
